[[{"header":{"parameterUnit":"m.s-1","parameterCategory":2,"la1":30.2991,"la2":30.254,"lo1":-89.0895,"lo2":-89.0444,"dy":0.0017,"dx":0.0017,"nx":28,"ny":28,"refTime":"2025-05-23T21:00:00:Z","depth":"0","parameterNumber":2,"parameterNumberName":"U-component_of_CURRENTS"},"data":[0,0,0,0,0,0,0,0,0,0,0,0,0,0,0,0,0,0,0,0,0,0,0,0,0,0,0,0,0,0,0,0,0,0,0,0,0,0,0,0,0,0,0,0,0,0,0,0,0,0,0,0,0,0,0,0,0,0,0.2123,0.2123,0,0.2158,0.2159,0.2159,0.2175,0.2175,0.2175,0.2175,0.2194,0.2194,0.2195,0,0,0,0,0,0,0,0,0,0,0,0,0,0.2126,0.2125,0.2123,0.2123,0.2124,0.2158,0.2159,0.2159,0.2175,0.2175,0.2175,0.2175,0.2194,0.2194,0.2195,0,0,0,0,0,0,0,0,0,0,0,0,0,0.2139,0.2125,0.2123,0.2136,0.2138,0.2158,0.2159,0.2159,0.2175,0.2175,0.2175,0.2175,0.2193,0.2194,0.2195,0.2201,0,0,0.2197,0.2198,0,0,0,0,0,0,0,0,0.2138,0.2139,0.2134,0.2135,0.2137,0.2162,0.2167,0.2172,0.2175,0.2161,0.2175,0.2175,0.2182,0.2184,0.2191,0.2201,0.2202,0.2197,0.2198,0.2198,0.2198,0,0,0,0,0,0,0,0.2137,0.2138,0.2137,0.2134,0.2136,0.216,0.2161,0.2168,0.2171,0.2162,0.2164,0.2168,0.2183,0.219,0.2191,0.2203,0.2197,0.2198,0.2199,0.2199,0.2241,0.2241,0,0,0,0,0,0,0.213,0.2137,0.2136,0.2138,0.2138,0.2159,0.2161,0.2154,0.2171,0.2174,0.2168,0.2168,0.2188,0.219,0.2192,0.2228,0.2198,0.2199,0.2199,0.224,0.2241,0.2242,0,0,0,0,0,0,0.213,0.2129,0.2134,0.2139,0.2141,0.2159,0.2152,0.2155,0.2165,0.2175,0.2178,0.2174,0.2188,0.2191,0.2204,0.2228,0.2199,0.22,0.2239,0.224,0.2241,0.2282,0,0,0,0,0,0,0.2129,0.2128,0.2126,0.2138,0.2141,0.2154,0.2152,0.2156,0.2167,0.2168,0.2182,0.2183,0.2189,0.2203,0.2204,0.2228,0.2201,0.2239,0.224,0.2241,0.228,0.2284,0.2288,0,0,0,0,0,0.2129,0.2129,0.2125,0.2126,0.2134,0.2155,0.2159,0.2172,0.2167,0.2179,0.2184,0.2183,0.2212,0.2204,0.2206,0.223,0.2238,0.224,0.2241,0.2278,0.2284,0.2288,0,0,0,0,0,0,0.213,0.2131,0.2127,0.2127,0.2141,0.2158,0.2169,0.2173,0.2186,0.2184,0.2189,0.2192,0.2219,0.2212,0.2203,0.2245,0.2226,0.2228,0.2253,0.2258,0.2262,0.2265,0.2201,0,0,0,0,0,0.2127,0.2125,0.2134,0.2134,0.2141,0.2152,0.2162,0.217,0.2182,0.2188,0.2195,0.2204,0.2226,0.2231,0.2247,0.2261,0.2257,0.2278,0.2283,0.2286,0.2289,0.2324,0.2332,0.2247,0.2246,0.2246,0,0,0.2125,0.2127,0.2125,0.2135,0.2144,0.2155,0.2159,0.2175,0.2188,0.2187,0.2204,0.2222,0.2235,0.2263,0.2273,0.2258,0.23,0.2288,0.2291,0.2292,0.2327,0.2335,0.2343,0.2248,0.2247,0.2247,0,0,0.2124,0.2124,0.2122,0.2134,0.215,0.2162,0.2166,0.2183,0.2197,0.2215,0.2226,0.2256,0.227,0.2296,0.2308,0.234,0.2328,0.2341,0.2358,0.2393,0.2401,0.2408,0.2381,0.2385,0.2336,0.2336,0.2336,0,0.2123,0.2115,0.2128,0.2133,0.2141,0.2162,0.2167,0.219,0.221,0.2225,0.2224,0.2273,0.2291,0.2334,0.2353,0.2353,0.2346,0.2341,0.24,0.2407,0.2413,0.2384,0.2388,0.2338,0.2338,0.2338,0.2338,0,0.2117,0.2115,0.2119,0.2126,0.2144,0.2154,0.2182,0.2204,0.222,0.2241,0.2287,0.2317,0.2344,0.2363,0.2371,0.2426,0.2395,0.2409,0.2389,0.2424,0.2391,0.2394,0.2341,0.2341,0.234,0.2339,0,0,0.2099,0.211,0.211,0.2111,0.2138,0.2152,0.2184,0.2219,0.2237,0.2276,0.2305,0.2367,0.2383,0.2398,0.2418,0.2453,0.2493,0.245,0.245,0.2424,0.2524,0.2268,0.2246,0.2521,0.2522,0.2524,0.2471,0,0.2087,0.2088,0.21,0.2108,0.2112,0.2146,0.2173,0.2213,0.2246,0.2283,0.2339,0.2373,0.2396,0.2411,0.2457,0.2495,0.2509,0.2502,0.2492,0.249,0.2262,0.2245,0.2101,0.2022,0.2474,0.2475,0.2475,0,0.2071,0.2075,0.2074,0.2096,0.2101,0.2113,0.2157,0.2183,0.225,0.2279,0.233,0.2365,0.2432,0.2444,0.2513,0.2506,0.2516,0.2535,0.2534,0.2284,0.2241,0.2066,0.2011,0.1938,0.248,0.248,0.2479,0,0.2047,0.2057,0.2054,0.206,0.2091,0.2102,0.2123,0.2179,0.2201,0.2271,0.229,0.2371,0.24,0.2458,0.247,0.2511,0.2509,0.2571,0.2339,0.232,0.2186,0.215,0.206,0.2608,0.2608,0.2608,0.2608,0,0.2027,0.2027,0.204,0.2039,0.2047,0.2076,0.2092,0.2132,0.2178,0.2201,0.2278,0.2291,0.2411,0.2414,0.2454,0.2353,0.2486,0.2318,0.2288,0.2186,0.2152,0.2071,0.206,0.2606,0.2607,0.2607,0.2607,0,0.2004,0.2009,0.2009,0.2028,0.2033,0.2039,0.2064,0.2081,0.2122,0.2151,0.2172,0.224,0.2219,0.2252,0.2311,0.2275,0.2137,0.2173,0.1992,0.1938,0.1636,0.1631,0.145,0.1426,0.1933,0.1927,0.1921,0,0.1986,0.1983,0.1995,0.1991,0.1995,0.2004,0.2017,0.2057,0.2066,0.2101,0.2108,0.2088,0.2042,0.1954,0.189,0.1817,0.1854,0.1631,0.1682,0.1552,0.1532,0.1543,0.1543,0.1536,0.1527,0.1521,0.1515,0,0.1962,0.1969,0.1974,0.196,0.1962,0.1957,0.1964,0.1962,0.2003,0.1993,0.1939,0.1892,0.1759,0.1584,0.1434,0.1404,0.1488,0.1479,0.1447,0.1257,0.1172,0.1154,0.1607,0.1454,0.146,0.1465,0.1468,0.147,0.1943,0.1937,0.1937,0.1915,0.1917,0.1885,0.1843,0.1839,0.1801,0.1728,0.1756,0.1585,0.1394,0.114,0.1079,0.0838,0.0999,0.0826,0.0846,0.0881,0.0791,0.1027,0.0765,0.0767,0.0768,0.077,0.0771,0,0.1894,0.1889,0.1883,0.1842,0.1801,0.1817,0.1785,0.1708,0.1604,0.1524,0.1415,0.1101,0.0849,0.0688,0.0388,0.0266,0.0367,0.0243,0.0324,0.0378,0.0672,0.0586,0.0146,0.0146,0.0146,0.0146,0.0146,0.0147,0.1867,0.1837,0.1823,0.1724,0.1686,0.1581,0.1531,0.143,0.1332,0.1068,0.0842,0.074,0.0493,0.0121,-0.0131,-0.0136,-0.0072,-0.0182,-0.0063,0.0216,0.0278,0.0337,0.0255,-0.0247,-0.0247,-0.0343,-0.0344,-0.0346]},{"header":{"parameterUnit":"m.s-1","parameterCategory":2,"la1":30.2991,"la2":30.254,"lo1":-89.0895,"lo2":-89.0444,"dy":0.0017,"dx":0.0017,"nx":28,"ny":28,"refTime":"2025-05-23T21:00:00:Z","depth":"0","parameterNumber":3,"parameterNumberName":"V-component_of_CURRENTS"},"data":[0,0,0,0,0,0,0,0,0,0,0,0,0,0,0,0,0,0,0,0,0,0,0,0,0,0,0,0,0,0,0,0,0,0,0,0,0,0,0,0,0,0,0,0,0,0,0,0,0,0,0,0,0,0,0,0,0,0,0.056,0.0561,0,0.0618,0.0618,0.0619,0.0636,0.0636,0.0636,0.0636,0.0664,0.0665,0.0666,0,0,0,0,0,0,0,0,0,0,0,0,0,0.0466,0.0468,0.056,0.0561,0.0562,0.0618,0.0618,0.0619,0.0636,0.0636,0.0636,0.0636,0.0664,0.0665,0.0666,0,0,0,0,0,0,0,0,0,0,0,0,0,0.0512,0.0468,0.056,0.0578,0.0581,0.0617,0.0618,0.0619,0.0636,0.0636,0.0636,0.0636,0.0664,0.0665,0.0666,0.0679,0,0,0.0671,0.0671,0,0,0,0,0,0,0,0,0.051,0.0516,0.0575,0.0577,0.058,0.0621,0.0596,0.0638,0.0636,0.0614,0.0636,0.0636,0.0648,0.0651,0.0661,0.0681,0.0682,0.0671,0.0672,0.0672,0.0673,0,0,0,0,0,0,0,0.0507,0.0513,0.0582,0.0576,0.0579,0.0584,0.059,0.0604,0.063,0.0616,0.0617,0.0626,0.0649,0.0659,0.0661,0.0682,0.0671,0.0672,0.0673,0.0673,0.0742,0.0743,0,0,0,0,0,0,0.0503,0.0511,0.058,0.0583,0.0545,0.0586,0.0593,0.0607,0.063,0.0635,0.0626,0.0627,0.0657,0.066,0.0662,0.0706,0.0672,0.0673,0.0674,0.0741,0.0743,0.0744,0,0,0,0,0,0,0.0501,0.0509,0.0577,0.0549,0.0558,0.0588,0.0603,0.0608,0.0623,0.0639,0.0642,0.0637,0.0657,0.066,0.0687,0.0706,0.0674,0.0675,0.074,0.0742,0.0743,0.0775,0,0,0,0,0,0,0.0498,0.0508,0.0516,0.0549,0.056,0.0607,0.0604,0.0609,0.0629,0.063,0.0649,0.0652,0.0657,0.0685,0.0688,0.0707,0.0676,0.0739,0.0741,0.0743,0.0773,0.0778,0.0782,0,0,0,0,0,0.0494,0.0513,0.0516,0.0524,0.057,0.0608,0.0614,0.0633,0.063,0.0643,0.0657,0.0651,0.0699,0.0687,0.069,0.071,0.0738,0.074,0.0743,0.0771,0.0777,0.0782,0,0,0,0,0,0,0.0477,0.0517,0.0521,0.055,0.0578,0.0612,0.0627,0.0636,0.0658,0.0657,0.0665,0.067,0.0701,0.0701,0.0687,0.0736,0.0717,0.072,0.0738,0.0743,0.0748,0.0765,0.0677,0,0,0,0,0,0.0477,0.05,0.0535,0.0557,0.0572,0.0597,0.0613,0.0627,0.0651,0.0661,0.0674,0.069,0.0713,0.0724,0.0742,0.0767,0.0766,0.0782,0.0787,0.079,0.0807,0.0827,0.0834,0.0751,0.0751,0.0751,0,0,0.0474,0.05,0.0512,0.0555,0.0576,0.0608,0.0607,0.0636,0.0664,0.066,0.0697,0.0707,0.0724,0.0757,0.077,0.0759,0.0809,0.0793,0.0796,0.0812,0.083,0.0838,0.0845,0.0753,0.0753,0.0752,0,0,0.0489,0.0506,0.0532,0.0558,0.0595,0.0615,0.0625,0.066,0.0678,0.0712,0.0719,0.0747,0.0772,0.0797,0.081,0.0851,0.0833,0.0847,0.0884,0.0902,0.0909,0.0915,0.0904,0.0909,0.0848,0.0848,0.0848,0,0.0484,0.0525,0.0545,0.0578,0.0605,0.062,0.0656,0.0678,0.0718,0.0743,0.0728,0.0791,0.0798,0.0855,0.0867,0.0863,0.0856,0.086,0.0908,0.0914,0.092,0.0907,0.0912,0.085,0.0849,0.0849,0.0849,0,0.0522,0.0554,0.0573,0.0621,0.0649,0.0683,0.0717,0.0745,0.076,0.0786,0.084,0.0853,0.0895,0.0895,0.0893,0.0943,0.0918,0.0911,0.0893,0.093,0.0913,0.0918,0.0852,0.0852,0.0851,0.0851,0,0,0.0519,0.0586,0.0593,0.0626,0.0676,0.0709,0.0754,0.0812,0.0854,0.0877,0.0937,0.0967,0.0973,0.099,0.0989,0.1001,0.1023,0.0973,0.0973,0.0959,0.104,0.1011,0.1012,0.1019,0.102,0.1022,0.1004,0,0.0546,0.0613,0.0642,0.0707,0.0746,0.0779,0.0826,0.0875,0.091,0.0967,0.099,0.1038,0.1009,0.1029,0.1041,0.104,0.1041,0.1027,0.1009,0.1008,0.0976,0.102,0.103,0.1015,0.1008,0.1009,0.101,0,0.058,0.0623,0.0688,0.0766,0.0786,0.0823,0.0907,0.0951,0.1025,0.1053,0.11,0.1116,0.1159,0.1118,0.1132,0.1122,0.1087,0.1068,0.1067,0.1038,0.099,0.0981,0.1023,0.1091,0.1017,0.1016,0.1016,0,0.0582,0.0661,0.0714,0.0739,0.0821,0.0859,0.0904,0.0978,0.103,0.1109,0.1154,0.1196,0.1227,0.1207,0.117,0.1153,0.1166,0.1138,0.1073,0.1069,0.1077,0.1071,0.1185,0.1139,0.1139,0.1139,0.1139,0,0.061,0.0655,0.0719,0.0749,0.0822,0.0871,0.0952,0.1004,0.1086,0.1163,0.1196,0.1258,0.1251,0.1258,0.1203,0.116,0.1191,0.1096,0.1077,0.1084,0.108,0.1136,0.1161,0.1138,0.1139,0.1139,0.1139,0,0.0615,0.0652,0.0719,0.0798,0.0825,0.0876,0.0974,0.1038,0.1106,0.1208,0.1238,0.1314,0.1322,0.1289,0.126,0.1207,0.1189,0.1127,0.1122,0.1103,0.11,0.1125,0.1181,0.1226,0.1063,0.1062,0.1062,0,0.0628,0.0661,0.0743,0.0781,0.0818,0.0895,0.0956,0.1039,0.1109,0.1243,0.1298,0.1344,0.1382,0.1328,0.1243,0.1149,0.1176,0.1097,0.1074,0.1124,0.1138,0.1141,0.1177,0.1083,0.1083,0.1083,0.1083,0,0.0656,0.0678,0.073,0.0798,0.0861,0.0938,0.1027,0.1085,0.1197,0.1275,0.1373,0.1411,0.1381,0.1323,0.1211,0.1143,0.1165,0.1087,0.1162,0.1194,0.1185,0.1211,0.1049,0.108,0.1081,0.1081,0.1081,0.1081,0.0672,0.0704,0.076,0.0825,0.0895,0.0978,0.1037,0.1127,0.1225,0.1336,0.1387,0.1418,0.1399,0.1252,0.1203,0.1147,0.1132,0.1124,0.1154,0.1155,0.1206,0.1024,0.1019,0.1019,0.1019,0.1019,0.1019,0,0.0686,0.0721,0.0786,0.0859,0.0924,0.0963,0.1084,0.1134,0.1225,0.13,0.1355,0.1364,0.134,0.1299,0.1243,0.1241,0.124,0.1242,0.1287,0.1323,0.1187,0.1198,0.1205,0.1205,0.1205,0.1205,0.1205,0.1205,0.0694,0.0741,0.0768,0.0859,0.0913,0.0987,0.1049,0.1123,0.1177,0.1233,0.1239,0.1264,0.1315,0.1355,0.1394,0.1388,0.1479,0.1409,0.1467,0.1409,0.1402,0.1395,0.1415,0.1468,0.1468,0.1608,0.161,0.1611]}],[{"header":{"parameterUnit":"m.s-1","parameterCategory":2,"la1":30.2991,"la2":30.254,"lo1":-89.0895,"lo2":-89.0444,"dy":0.0017,"dx":0.0017,"nx":28,"ny":28,"refTime":"2025-05-23T21:00:00:Z","depth":"2","parameterNumber":2,"parameterNumberName":"U-component_of_CURRENTS"},"data":[0,0,0,0,0,0,0,0,0,0,0,0,0,0,0,0,0,0,0,0,0,0,0,0,0,0,0,0,0,0,0,0,0,0,0,0,0,0,0,0,0,0,0,0,0,0,0,0,0,0,0,0,0,0,0,0,0,0,0.1725,0.1725,0,0.1744,0.1745,0.1745,0.1733,0.1732,0.173,0.1729,0.1817,0.1821,0.1824,0,0,0,0,0,0,0,0,0,0,0,0,0,0.1752,0.1752,0.1725,0.1725,0.1724,0.1744,0.1745,0.1746,0.1733,0.1732,0.173,0.1729,0.1816,0.182,0.1824,0,0,0,0,0,0,0,0,0,0,0,0,0,0.176,0.1752,0.1725,0.1715,0.1714,0.1744,0.1745,0.1746,0.1733,0.1732,0.173,0.1728,0.1815,0.182,0.1825,0.1894,0,0,0.1841,0.1843,0,0,0,0,0,0,0,0,0.1759,0.176,0.1717,0.1716,0.1714,0.1728,0.1786,0.1796,0.1734,0.1734,0.1729,0.1727,0.179,0.1797,0.1814,0.1898,0.1902,0.1841,0.1845,0.1847,0.1848,0,0,0,0,0,0,0,0.1759,0.1759,0.174,0.1717,0.1715,0.1734,0.1733,0.1789,0.1779,0.1734,0.1731,0.1722,0.1791,0.1809,0.1816,0.1904,0.1841,0.1846,0.1849,0.1851,0.1936,0.1935,0,0,0,0,0,0,0.174,0.1758,0.1739,0.174,0.1724,0.1734,0.1734,0.1731,0.1777,0.1779,0.1724,0.1721,0.1801,0.181,0.182,0.1884,0.1847,0.1852,0.1855,0.1937,0.1936,0.1935,0,0,0,0,0,0,0.1741,0.1738,0.1738,0.1743,0.1744,0.1735,0.1733,0.1732,0.1753,0.1767,0.1772,0.1743,0.18,0.1812,0.1831,0.1888,0.1854,0.1859,0.1938,0.1937,0.1936,0.2027,0,0,0,0,0,0,0.1742,0.1739,0.1738,0.1742,0.1742,0.1751,0.1734,0.1734,0.1747,0.1745,0.1787,0.1792,0.18,0.1823,0.1836,0.1894,0.1863,0.1939,0.1938,0.1936,0.2025,0.2029,0.2032,0,0,0,0,0,0.1743,0.1739,0.1739,0.1736,0.1739,0.175,0.1754,0.1746,0.175,0.1761,0.1761,0.1791,0.1822,0.1827,0.1843,0.1904,0.194,0.1938,0.1936,0.2023,0.2028,0.2032,0,0,0,0,0,0,0.175,0.1738,0.1736,0.173,0.1738,0.1745,0.1754,0.176,0.1776,0.1774,0.1793,0.1798,0.1843,0.1839,0.1844,0.191,0.1883,0.1884,0.1944,0.1948,0.1952,0.195,0.1867,0,0,0,0,0,0.1752,0.1749,0.1745,0.1745,0.175,0.1763,0.177,0.1767,0.1775,0.1781,0.1806,0.182,0.1851,0.1867,0.189,0.1938,0.1927,0.1974,0.1978,0.1982,0.1982,0.2015,0.2024,0.1929,0.1929,0.1929,0,0,0.1752,0.1747,0.1745,0.1747,0.1759,0.1772,0.1765,0.1777,0.179,0.1793,0.1827,0.1851,0.1863,0.1905,0.1925,0.1909,0.1994,0.1979,0.1984,0.1982,0.2014,0.2024,0.2033,0.1927,0.1928,0.1928,0,0,0.175,0.1756,0.1752,0.1764,0.1771,0.1785,0.1792,0.1808,0.1817,0.185,0.1851,0.1887,0.1937,0.1951,0.1967,0.2001,0.2019,0.2015,0.2042,0.2075,0.2085,0.2093,0.2067,0.2072,0.201,0.2011,0.2011,0,0.1746,0.1746,0.1755,0.1761,0.1769,0.1794,0.1801,0.1826,0.1844,0.1858,0.1859,0.1932,0.196,0.2009,0.2017,0.2021,0.2016,0.2041,0.2086,0.2094,0.2101,0.2073,0.2078,0.2015,0.2014,0.2014,0.2013,0,0.1747,0.1749,0.1756,0.1772,0.1788,0.1803,0.1827,0.1853,0.1882,0.1905,0.1961,0.199,0.2023,0.2054,0.206,0.2125,0.2096,0.2102,0.2092,0.2118,0.2084,0.2087,0.2021,0.2019,0.2018,0.2017,0,0,0.1726,0.1746,0.1749,0.1754,0.1794,0.1803,0.1843,0.1877,0.1904,0.1952,0.1987,0.2064,0.2087,0.2101,0.2123,0.2161,0.2218,0.216,0.216,0.2161,0.2254,0.2026,0.2007,0.2249,0.2251,0.2252,0.2203,0,0.1722,0.1721,0.1742,0.1762,0.1769,0.1809,0.1839,0.1877,0.1926,0.197,0.2023,0.2075,0.2102,0.2133,0.2179,0.2222,0.2235,0.2227,0.2203,0.2201,0.202,0.2007,0.1867,0.1794,0.2206,0.2207,0.2207,0,0.1716,0.1715,0.1723,0.1743,0.1752,0.1778,0.1833,0.1862,0.1935,0.1969,0.2036,0.208,0.2155,0.2167,0.2244,0.2243,0.2248,0.2268,0.2266,0.2025,0.1979,0.1835,0.1785,0.2213,0.2212,0.2212,0.2212,0,0.1692,0.1703,0.1708,0.172,0.1754,0.1772,0.18,0.1868,0.1894,0.1978,0.2014,0.2097,0.2137,0.2194,0.2219,0.2257,0.2264,0.2315,0.2095,0.2078,0.1933,0.1898,0.2339,0.2339,0.2339,0.2339,0.2339,0,0.1681,0.1683,0.1698,0.1707,0.1715,0.175,0.1785,0.1824,0.1887,0.1917,0.2013,0.2038,0.2156,0.217,0.2206,0.2121,0.2243,0.208,0.2051,0.1949,0.1918,0.2267,0.226,0.2337,0.2338,0.2338,0.2338,0,0.1655,0.1671,0.1677,0.1703,0.1707,0.1721,0.1761,0.1785,0.1853,0.1896,0.1924,0.2008,0.2013,0.2049,0.2104,0.2058,0.2033,0.1958,0.1785,0.1733,0.1837,0.1834,0.1752,0.1744,0.1737,0.1731,0.1726,0,0.1639,0.1646,0.1661,0.1672,0.1689,0.1706,0.1714,0.1764,0.1791,0.186,0.1869,0.1886,0.1849,0.1784,0.1727,0.166,0.1801,0.1463,0.1501,0.1797,0.1779,0.1787,0.1794,0.1356,0.1348,0.1342,0.1337,0,0.1617,0.1634,0.1632,0.1638,0.1653,0.1653,0.1671,0.1677,0.1731,0.1738,0.1722,0.1691,0.1598,0.1441,0.1303,0.127,0.147,0.1324,0.1711,0.1489,0.1409,0.1395,0.1418,0.1281,0.1287,0.1291,0.1294,0.1296,0.1596,0.1586,0.1587,0.1593,0.1605,0.1587,0.1556,0.1559,0.1532,0.1498,0.153,0.1395,0.1355,0.1054,0.096,0.0882,0.1029,0.1011,0.1039,0.1071,0.0997,0.0904,0.0667,0.0669,0.0671,0.0672,0.0674,0,0.1558,0.1548,0.1538,0.1519,0.1494,0.1534,0.1506,0.1443,0.135,0.1296,0.1216,0.1,0.0807,0.0768,0.0556,0.0486,0.058,0.0456,0.0619,0.0671,0.0718,0.0636,0.0206,0.0204,0.0203,0.0202,0,0,0.1532,0.1495,0.1471,0.1402,0.1405,0.1335,0.1305,0.1205,0.1124,0.0966,0.0837,0.0801,0.075,0.0508,0.043,0.0293,0.05,0.0254,0.0627,0.0875,0.0922,0.1019,0.0943,0,0,0,0,0]},{"header":{"parameterUnit":"m.s-1","parameterCategory":2,"la1":30.2991,"la2":30.254,"lo1":-89.0895,"lo2":-89.0444,"dy":0.0017,"dx":0.0017,"nx":28,"ny":28,"refTime":"2025-05-23T21:00:00:Z","depth":"2","parameterNumber":3,"parameterNumberName":"V-component_of_CURRENTS"},"data":[0,0,0,0,0,0,0,0,0,0,0,0,0,0,0,0,0,0,0,0,0,0,0,0,0,0,0,0,0,0,0,0,0,0,0,0,0,0,0,0,0,0,0,0,0,0,0,0,0,0,0,0,0,0,0,0,0,0,0.0245,0.0245,0,0.0271,0.0271,0.0271,0.0254,0.0253,0.0252,0.0251,0.0281,0.0283,0.0285,0,0,0,0,0,0,0,0,0,0,0,0,0,0.0198,0.0199,0.0245,0.0245,0.0245,0.027,0.0271,0.0272,0.0254,0.0253,0.0252,0.025,0.0281,0.0283,0.0285,0,0,0,0,0,0,0,0,0,0,0,0,0,0.0222,0.0199,0.0245,0.0238,0.0238,0.027,0.0271,0.0272,0.0254,0.0253,0.0251,0.025,0.028,0.0283,0.0285,0.033,0,0,0.0293,0.0294,0,0,0,0,0,0,0,0,0.0221,0.0224,0.0239,0.0239,0.0238,0.0256,0.0265,0.0291,0.0255,0.025,0.0251,0.0249,0.0273,0.0276,0.0287,0.0332,0.0333,0.0293,0.0295,0.0296,0.0297,0,0,0,0,0,0,0,0.0219,0.0223,0.0257,0.0239,0.0239,0.0239,0.0241,0.027,0.0271,0.025,0.0249,0.0249,0.0273,0.0284,0.0287,0.0333,0.0293,0.0295,0.0297,0.0298,0.037,0.0371,0,0,0,0,0,0,0.0213,0.0222,0.0256,0.0258,0.0224,0.0241,0.0243,0.0253,0.0271,0.0271,0.025,0.0248,0.0281,0.0284,0.0288,0.033,0.0296,0.0298,0.03,0.037,0.037,0.0371,0,0,0,0,0,0,0.0212,0.0217,0.0255,0.0238,0.0243,0.0243,0.0255,0.0254,0.0265,0.027,0.0271,0.026,0.028,0.0285,0.0306,0.0331,0.0299,0.0302,0.037,0.037,0.0371,0.0422,0,0,0,0,0,0,0.0211,0.0216,0.0222,0.0238,0.0243,0.0271,0.0256,0.0256,0.0266,0.0264,0.0279,0.028,0.0279,0.0302,0.0308,0.0334,0.0304,0.0369,0.037,0.037,0.042,0.0424,0.0428,0,0,0,0,0,0.021,0.0219,0.0223,0.0227,0.0251,0.0272,0.0275,0.0271,0.0268,0.0276,0.028,0.0279,0.031,0.0305,0.0312,0.0339,0.0369,0.037,0.037,0.0418,0.0423,0.0428,0,0,0,0,0,0,0.0196,0.0219,0.0223,0.0237,0.0253,0.0267,0.0275,0.0279,0.0293,0.029,0.0294,0.0296,0.0324,0.0322,0.0315,0.0358,0.0337,0.0339,0.037,0.0375,0.0379,0.0395,0.0306,0,0,0,0,0,0.02,0.0217,0.0234,0.0248,0.0256,0.0271,0.0279,0.0281,0.0293,0.0298,0.0309,0.0318,0.0337,0.0346,0.036,0.0392,0.0388,0.0409,0.0413,0.0417,0.0432,0.0448,0.0455,0.0374,0.0374,0.0374,0,0,0.0197,0.0213,0.0221,0.0247,0.026,0.0283,0.0273,0.029,0.0309,0.0302,0.0332,0.034,0.0348,0.0377,0.0389,0.0377,0.0432,0.0418,0.0421,0.0435,0.0449,0.0458,0.0465,0.0374,0.0374,0.0374,0,0,0.0207,0.0219,0.0238,0.0257,0.0279,0.0291,0.0299,0.0321,0.0328,0.036,0.0357,0.038,0.0406,0.0419,0.0429,0.0466,0.0456,0.0464,0.0502,0.0517,0.0524,0.0531,0.0517,0.0522,0.0464,0.0464,0.0464,0,0.0202,0.0234,0.0246,0.0271,0.0291,0.0298,0.0327,0.0341,0.0366,0.0386,0.037,0.0425,0.0431,0.0476,0.0484,0.0481,0.0473,0.0486,0.0524,0.053,0.0536,0.0521,0.0526,0.0466,0.0466,0.0466,0.0466,0,0.0232,0.0257,0.0271,0.0311,0.0331,0.0357,0.0378,0.0397,0.041,0.0433,0.0477,0.0484,0.0519,0.052,0.0518,0.0565,0.054,0.0531,0.0516,0.0548,0.0529,0.0533,0.047,0.0469,0.0468,0.0468,0,0,0.023,0.0282,0.0289,0.0316,0.0357,0.0379,0.0413,0.0456,0.0493,0.0509,0.056,0.0588,0.0599,0.061,0.0608,0.0619,0.0648,0.0596,0.0595,0.059,0.0661,0.0632,0.0633,0.0645,0.0647,0.0648,0.0624,0,0.0254,0.0306,0.033,0.0384,0.0414,0.0438,0.0473,0.0511,0.0543,0.0591,0.0606,0.0654,0.063,0.0654,0.0664,0.0667,0.0664,0.0654,0.0625,0.0623,0.0601,0.0639,0.0626,0.0604,0.0628,0.0629,0.0629,0,0.0281,0.0316,0.037,0.043,0.0447,0.0481,0.0548,0.0583,0.0644,0.0668,0.0713,0.0732,0.0773,0.0736,0.0749,0.0743,0.0709,0.069,0.0688,0.0652,0.0604,0.0579,0.061,0.0636,0.0635,0.0635,0.0634,0,0.0283,0.0345,0.0392,0.0414,0.048,0.0513,0.0549,0.0613,0.066,0.0728,0.0778,0.0811,0.0845,0.0821,0.0789,0.0778,0.078,0.0756,0.0685,0.0681,0.0661,0.0653,0.0748,0.0748,0.0748,0.0748,0.0748,0,0.0306,0.0342,0.0398,0.0428,0.0489,0.0529,0.0604,0.0642,0.0719,0.0793,0.0825,0.088,0.0872,0.0874,0.0818,0.0772,0.0801,0.0706,0.0687,0.0674,0.0668,0.0691,0.0685,0.0747,0.0747,0.0747,0.0747,0,0.0304,0.0341,0.0398,0.047,0.0493,0.0539,0.0632,0.0687,0.0758,0.0855,0.0886,0.095,0.0962,0.0923,0.0887,0.0819,0.0766,0.0725,0.0697,0.0676,0.0644,0.064,0.0665,0.0665,0.0664,0.0663,0.0663,0,0.0312,0.0343,0.0419,0.0459,0.0498,0.0567,0.0617,0.0694,0.0764,0.0894,0.0945,0.0996,0.1012,0.0945,0.0869,0.0771,0.075,0.0666,0.0648,0.0664,0.0642,0.064,0.0637,0.0627,0.0627,0.0626,0.0625,0,0.0329,0.0355,0.04,0.0474,0.0535,0.0601,0.0686,0.0746,0.0851,0.0928,0.1022,0.1041,0.1014,0.0932,0.0809,0.0733,0.0689,0.0648,0.0696,0.065,0.0627,0.0605,0.0605,0.062,0.062,0.0621,0.0621,0.0621,0.034,0.0366,0.0423,0.0493,0.0563,0.0641,0.0692,0.078,0.0873,0.0987,0.1024,0.1025,0.098,0.0812,0.0735,0.0653,0.0662,0.059,0.0593,0.0596,0.0596,0.0573,0.0554,0.0554,0.0554,0.0554,0.0554,0,0.0358,0.0386,0.0441,0.0521,0.0588,0.0636,0.074,0.0784,0.0872,0.0947,0.0996,0.0899,0.0827,0.0764,0.065,0.0577,0.0577,0.0531,0.055,0.0555,0.056,0.0559,0.0506,0.0506,0.0506,0.0506,0,0,0.0366,0.0406,0.0424,0.0521,0.0591,0.0671,0.073,0.0784,0.0833,0.0865,0.0859,0.0884,0.0815,0.0715,0.0645,0.0576,0.0574,0.055,0.0592,0.0627,0.0633,0.0593,0.0597,0,0,0,0,0]}],[{"header":{"parameterUnit":"m.s-1","parameterCategory":2,"la1":30.2991,"la2":30.254,"lo1":-89.0895,"lo2":-89.0444,"dy":0.0017,"dx":0.0017,"nx":28,"ny":28,"refTime":"2025-05-23T21:00:00:Z","depth":"4","parameterNumber":2,"parameterNumberName":"U-component_of_CURRENTS"},"data":[0,0,0,0,0,0,0,0,0,0,0,0,0,0,0,0,0,0,0,0,0,0,0,0,0,0,0,0,0,0,0,0,0,0,0,0,0,0,0,0,0,0,0,0,0,0,0,0,0,0,0,0,0,0,0,0,0,0,0.0754,0.0754,0,0.0712,0.0712,0.0711,0.0701,0.0701,0.0702,0.0703,0.0722,0.0721,0.0721,0,0,0,0,0,0,0,0,0,0,0,0,0,0.0788,0.0787,0.0754,0.0754,0.0754,0.0713,0.0712,0.0711,0.0701,0.0701,0.0702,0.0703,0.0722,0.0721,0.0721,0,0,0,0,0,0,0,0,0,0,0,0,0,0.0758,0.0787,0.0754,0.0747,0.0746,0.0713,0.0712,0.071,0.07,0.0701,0.0702,0.0703,0.0722,0.0721,0.0721,0.07,0,0,0.0721,0.0721,0,0,0,0,0,0,0,0,0.076,0.0757,0.0748,0.0747,0.0746,0.0717,0.0731,0.0711,0.07,0.0713,0.0703,0.0704,0.0728,0.0727,0.071,0.0701,0.0702,0.0721,0.0721,0.0721,0.0721,0,0,0,0,0,0,0,0.0762,0.0758,0.0733,0.0748,0.0747,0.0734,0.073,0.0726,0.0713,0.0712,0.0712,0.0714,0.0727,0.071,0.0711,0.0702,0.0721,0.0721,0.072,0.072,0.0763,0.0764,0,0,0,0,0,0,0.0777,0.076,0.0734,0.0732,0.0761,0.0733,0.0729,0.0722,0.0712,0.0712,0.0714,0.0714,0.071,0.0711,0.0711,0.0764,0.0721,0.072,0.072,0.0762,0.0763,0.0765,0,0,0,0,0,0,0.0777,0.0774,0.0736,0.0749,0.0744,0.0732,0.0723,0.072,0.0733,0.0713,0.0714,0.0734,0.0711,0.0712,0.0734,0.0762,0.072,0.072,0.076,0.0762,0.0764,0.082,0,0,0,0,0,0,0.0778,0.0774,0.0779,0.075,0.0744,0.0739,0.0723,0.0719,0.0733,0.0734,0.073,0.0731,0.0711,0.0734,0.0734,0.0761,0.072,0.0759,0.0761,0.0763,0.0817,0.0824,0.083,0,0,0,0,0,0.0779,0.0775,0.0779,0.0777,0.0749,0.0741,0.0737,0.0728,0.0734,0.0742,0.0743,0.0732,0.0749,0.0735,0.0734,0.0762,0.0758,0.0761,0.0763,0.0814,0.0822,0.083,0,0,0,0,0,0,0.0793,0.0774,0.0778,0.0769,0.0771,0.0741,0.0745,0.0747,0.0749,0.0758,0.0743,0.0743,0.0777,0.0762,0.0747,0.0782,0.0754,0.0756,0.0793,0.08,0.0807,0.0792,0.072,0,0,0,0,0,0.08,0.0794,0.0783,0.0783,0.0784,0.0773,0.0772,0.0771,0.0768,0.077,0.0768,0.077,0.0781,0.0786,0.0788,0.0802,0.0798,0.0822,0.0828,0.0834,0.0822,0.0859,0.0868,0.0774,0.0774,0.0774,0,0,0.0806,0.0797,0.0795,0.0787,0.0783,0.0775,0.0774,0.0782,0.0785,0.0773,0.0784,0.0798,0.0792,0.0811,0.0824,0.0805,0.086,0.0837,0.0842,0.0827,0.0863,0.0872,0.088,0.0776,0.0775,0.0775,0,0,0.0809,0.081,0.0805,0.0807,0.0813,0.0798,0.0812,0.0804,0.0814,0.0826,0.0828,0.0866,0.0857,0.0869,0.0871,0.0917,0.0899,0.0918,0.0932,0.0969,0.0977,0.0983,0.0995,0.1002,0.0914,0.0915,0.0915,0,0.0819,0.0806,0.0806,0.0806,0.0806,0.0814,0.0812,0.0816,0.0821,0.084,0.084,0.0871,0.0885,0.0915,0.0929,0.0934,0.0933,0.0903,0.0977,0.0984,0.099,0.1,0.1007,0.0918,0.0917,0.0917,0.0917,0,0.0815,0.0811,0.0812,0.0805,0.0809,0.0812,0.0818,0.0836,0.085,0.0861,0.0911,0.0926,0.095,0.0965,0.0955,0.1008,0.0987,0.0989,0.0957,0.1003,0.101,0.1017,0.0922,0.0921,0.092,0.0919,0,0,0.0809,0.0805,0.0808,0.0809,0.081,0.0812,0.0826,0.0843,0.0869,0.0894,0.093,0.0968,0.0999,0.1004,0.1018,0.1039,0.1098,0.1025,0.1025,0.1033,0.1156,0.1008,0.1,0.1108,0.1109,0.111,0.1145,0,0.0804,0.0798,0.0797,0.0797,0.0791,0.0808,0.0819,0.0848,0.0876,0.0916,0.0963,0.1008,0.1007,0.1039,0.1064,0.1095,0.1116,0.1087,0.1111,0.1111,0.0972,0.1004,0.1115,0.115,0.1151,0.1152,0.1153,0,0.0793,0.079,0.0786,0.0793,0.0796,0.0805,0.0837,0.0852,0.0912,0.0943,0.0997,0.1035,0.1096,0.1087,0.115,0.1127,0.1144,0.1153,0.1155,0.0995,0.0974,0.1093,0.1165,0.1164,0.1163,0.1162,0.1162,0,0.078,0.0781,0.0777,0.078,0.079,0.0811,0.0827,0.0875,0.0903,0.098,0.1013,0.1081,0.1125,0.1161,0.1176,0.1181,0.1209,0.1235,0.1112,0.1102,0.1202,0.1194,0.1274,0.1274,0.1274,0.1274,0.1274,0,0.0756,0.0757,0.0781,0.0782,0.0799,0.0818,0.0854,0.0883,0.0939,0.0968,0.1042,0.1062,0.1144,0.1165,0.1183,0.1141,0.1229,0.1105,0.1099,0.1225,0.1219,0.1206,0.1198,0.1275,0.1275,0.1275,0.1274,0,0.0725,0.0738,0.0741,0.0772,0.0791,0.081,0.0865,0.0876,0.0946,0.0984,0.1015,0.1076,0.1098,0.1132,0.1179,0.1136,0.1127,0.1089,0.1191,0.1193,0.1002,0.0997,0.0991,0.0986,0.0981,0.0978,0.0975,0,0.0698,0.0695,0.074,0.0746,0.0762,0.0801,0.0808,0.0875,0.0886,0.0965,0.0964,0.1019,0.1044,0.0993,0.1033,0.1037,0.1019,0.1005,0.1027,0.0977,0.0973,0.0974,0.0975,0.0968,0.0967,0.0966,0.0965,0,0.0647,0.0675,0.0686,0.0701,0.0718,0.0729,0.076,0.0772,0.0826,0.0902,0.0901,0.0911,0.0907,0.0922,0.0901,0.0908,0.1015,0.0962,0.0972,0.0993,0.095,0.0951,0.0956,0.095,0.0952,0.0954,0.0954,0,0.0623,0.0619,0.064,0.0648,0.0657,0.0643,0.0676,0.068,0.0712,0.0803,0.079,0.0838,0.0894,0.0851,0.0837,0.0816,0.0828,0.081,0.0829,0.0845,0.0773,0.0696,0.0605,0,0,0,0,0,0.0597,0.0581,0.0575,0.0578,0.0576,0.0594,0.0618,0.0647,0.0715,0.0686,0.0746,0.0741,0.0727,0.0745,0.0699,0.0762,0.0822,0.07,0.0809,0.0869,0.0886,0.0809,0,0,0,0,0,0,0.0574,0.0574,0.056,0.051,0.0501,0.0495,0.0514,0.0559,0.0556,0.0633,0.0634,0.0686,0.0689,0.076,0.069,0.0691,0.0735,0.073,0.0726,0.0859,0.0875,0.0888,0.0816,0,0,0,0,0]},{"header":{"parameterUnit":"m.s-1","parameterCategory":2,"la1":30.2991,"la2":30.254,"lo1":-89.0895,"lo2":-89.0444,"dy":0.0017,"dx":0.0017,"nx":28,"ny":28,"refTime":"2025-05-23T21:00:00:Z","depth":"4","parameterNumber":3,"parameterNumberName":"V-component_of_CURRENTS"},"data":[0,0,0,0,0,0,0,0,0,0,0,0,0,0,0,0,0,0,0,0,0,0,0,0,0,0,0,0,0,0,0,0,0,0,0,0,0,0,0,0,0,0,0,0,0,0,0,0,0,0,0,0,0,0,0,0,0,0,0.0109,0.0109,0,0.0122,0.0122,0.0122,0.0134,0.0134,0.0135,0.0135,0.0157,0.0158,0.0158,0,0,0,0,0,0,0,0,0,0,0,0,0,0.0085,0.0086,0.0109,0.0109,0.0109,0.0122,0.0122,0.0122,0.0134,0.0134,0.0135,0.0135,0.0157,0.0158,0.0158,0,0,0,0,0,0,0,0,0,0,0,0,0,0.0096,0.0086,0.0109,0.0117,0.0118,0.0122,0.0122,0.0122,0.0134,0.0134,0.0135,0.0135,0.0157,0.0158,0.0158,0.0157,0,0,0.016,0.016,0,0,0,0,0,0,0,0,0.0096,0.0097,0.0115,0.0116,0.0117,0.0127,0.0122,0.0134,0.0134,0.0128,0.0135,0.0135,0.0148,0.0149,0.0151,0.0158,0.0159,0.016,0.0161,0.0161,0.0161,0,0,0,0,0,0,0,0.0095,0.0096,0.0113,0.0116,0.0117,0.0117,0.0119,0.0124,0.0136,0.0128,0.0129,0.0131,0.0149,0.015,0.0151,0.0159,0.016,0.0161,0.0161,0.0161,0.0175,0.0175,0,0,0,0,0,0,0.0094,0.0096,0.0113,0.0114,0.0107,0.0117,0.0119,0.0123,0.0136,0.0138,0.0131,0.0132,0.0149,0.0151,0.0152,0.017,0.0161,0.0161,0.0162,0.0175,0.0175,0.0175,0,0,0,0,0,0,0.0094,0.0096,0.0113,0.0105,0.0108,0.0118,0.0122,0.0123,0.013,0.0138,0.014,0.0136,0.0149,0.0151,0.0162,0.017,0.0162,0.0162,0.0175,0.0175,0.0175,0.0193,0,0,0,0,0,0,0.0093,0.0095,0.0098,0.0105,0.0108,0.0121,0.0122,0.0124,0.013,0.0132,0.0143,0.0145,0.0149,0.0161,0.0162,0.0171,0.0163,0.0175,0.0175,0.0175,0.0193,0.0194,0.0195,0,0,0,0,0,0.0092,0.0097,0.0098,0.01,0.0111,0.0121,0.0123,0.013,0.0131,0.0136,0.0142,0.0145,0.0162,0.0162,0.0163,0.0172,0.0175,0.0175,0.0175,0.0192,0.0194,0.0195,0,0,0,0,0,0,0.0087,0.0098,0.01,0.0108,0.0116,0.0124,0.0128,0.0132,0.014,0.0142,0.0147,0.015,0.0161,0.0161,0.0161,0.0174,0.0168,0.0168,0.018,0.0181,0.0183,0.0188,0.0163,0,0,0,0,0,0.0086,0.0095,0.0103,0.011,0.0113,0.012,0.0125,0.0131,0.0138,0.0142,0.0151,0.0156,0.016,0.0167,0.0171,0.0181,0.0175,0.0186,0.0187,0.0188,0.0193,0.0187,0.0188,0.0175,0.0175,0.0175,0,0,0.0084,0.0094,0.0097,0.011,0.0115,0.0127,0.0124,0.0134,0.0147,0.0143,0.0162,0.0161,0.0162,0.0173,0.0178,0.0177,0.0188,0.0188,0.0189,0.0193,0.0187,0.0189,0.019,0.0175,0.0175,0.0175,0,0,0.009,0.0095,0.0104,0.0114,0.0126,0.0132,0.0136,0.0147,0.0155,0.0168,0.0167,0.0172,0.0182,0.0187,0.0189,0.0197,0.0191,0.0195,0.0211,0.0206,0.0207,0.0208,0.02,0.02,0.0199,0.0199,0.0199,0,0.0087,0.0103,0.0108,0.0122,0.0133,0.0136,0.015,0.0158,0.0173,0.0182,0.0177,0.0187,0.0189,0.0202,0.0205,0.0202,0.0194,0.0208,0.0208,0.0209,0.021,0.0201,0.0201,0.02,0.02,0.02,0.02,0,0.0103,0.0115,0.0122,0.0143,0.0153,0.0166,0.0179,0.019,0.0196,0.0205,0.0216,0.0214,0.0223,0.0219,0.0216,0.0223,0.0214,0.0208,0.0207,0.0212,0.0202,0.0202,0.0201,0.0201,0.0201,0.0201,0,0,0.0098,0.0127,0.013,0.0146,0.0167,0.018,0.0199,0.0219,0.0237,0.024,0.0261,0.0257,0.0254,0.0256,0.0249,0.0243,0.024,0.0229,0.0229,0.0225,0.0224,0.0217,0.0216,0.0232,0.0232,0.0232,0.0214,0,0.0109,0.0139,0.0151,0.0182,0.0197,0.0211,0.0233,0.0251,0.0262,0.0284,0.0277,0.0294,0.0269,0.0277,0.0265,0.025,0.024,0.0245,0.0216,0.0215,0.0211,0.0216,0.0232,0.0213,0.0213,0.0213,0.0213,0,0.012,0.0141,0.017,0.0209,0.0217,0.0238,0.0274,0.0295,0.032,0.033,0.0334,0.0334,0.0333,0.031,0.0279,0.0282,0.0256,0.0235,0.0234,0.0223,0.0208,0.0207,0.0212,0.0213,0.0213,0.0213,0.0213,0,0.0118,0.0155,0.0182,0.0195,0.0235,0.0255,0.028,0.0309,0.0338,0.0363,0.0382,0.0373,0.0378,0.0341,0.0296,0.0292,0.0254,0.0246,0.0211,0.021,0.0214,0.0213,0.0221,0.0221,0.0221,0.0221,0.0221,0,0.0126,0.0147,0.0186,0.0202,0.0244,0.0268,0.0314,0.0335,0.0375,0.0409,0.0408,0.0421,0.0385,0.0359,0.0311,0.0259,0.0265,0.0217,0.0207,0.0221,0.0221,0.0213,0.0212,0.0221,0.0221,0.0221,0.0221,0,0.0119,0.0142,0.0176,0.0223,0.0244,0.0274,0.0343,0.0373,0.0408,0.045,0.0464,0.0466,0.0434,0.0386,0.033,0.0284,0.0233,0.021,0.0228,0.0219,0.019,0.0191,0.0182,0.0182,0.0181,0.0181,0.0181,0,0.0119,0.0134,0.0189,0.0216,0.024,0.0293,0.0331,0.0385,0.0418,0.0467,0.0483,0.0479,0.0467,0.0381,0.0328,0.0246,0.0227,0.0199,0.0195,0.0196,0.0187,0.0188,0.0189,0.0181,0.018,0.018,0.018,0,0.012,0.0136,0.0167,0.0218,0.0262,0.0315,0.0371,0.0401,0.0456,0.0489,0.0499,0.0473,0.044,0.0378,0.0319,0.0254,0.0219,0.0196,0.0196,0.0192,0.0194,0.0186,0.0187,0.0179,0.018,0.018,0.018,0,0.0122,0.0139,0.0177,0.0224,0.0275,0.0322,0.0355,0.0399,0.0442,0.0494,0.0489,0.0464,0.0457,0.0381,0.0319,0.0267,0.0252,0.0222,0.022,0.0221,0.0235,0.0244,0.024,0,0,0,0,0,0.0128,0.0146,0.0183,0.0234,0.028,0.0311,0.0377,0.0407,0.0457,0.0462,0.0483,0.045,0.0387,0.0362,0.0309,0.0308,0.0238,0.0242,0.02,0.0174,0.0175,0.0185,0,0,0,0,0,0,0.0132,0.0163,0.0178,0.0232,0.0262,0.0317,0.0356,0.0389,0.04,0.0437,0.0404,0.0417,0.0354,0.0409,0.0298,0.0286,0.0248,0.0224,0.0222,0.0173,0.0174,0.0175,0.0185,0,0,0,0,0]}]]